Simultaneous Nadir Overpasses (SNOs) Predictions

Prediction of SNOs between GOES-16 and LANDSAT-8 Satellite Orbit:

Table of predicted SNOs for the next 14.0 days since TLE Epoch: 1/10/2025
Index Date Time (GOES-16) GOES-16 Lat,Lon LANDSAT-8 Lat,Lon Distance(km) Time Diff (sec)
1 01/11/2025 03:18:28 0.02, -75.17 -0.21, -76.17 114.11 80
2 01/13/2025 03:03:37 0.02, -75.17 0.43, -73.21 222.12 80
3 01/13/2025 15:24:53 -0.01, -75.20 0.63, -78.38 360.57 80
4 01/15/2025 15:12:41 -0.01, -75.21 0.03, -75.42 22.89 80
5 01/17/2025 15:03:09 -0.00, -75.23 -0.60, -72.46 315.95 80
6 01/18/2025 03:24:33 0.00, -75.21 -0.50, -77.65 276.90 80
7 01/20/2025 03:09:40 0.00, -75.24 0.10, -74.68 62.93 80
8 01/22/2025 02:57:28 0.00, -75.27 0.78, -71.73 403.17 80
9 01/22/2025 15:18:43 -0.00, -75.31 0.33, -76.88 178.94 80
10 01/24/2025 15:09:10 -0.00, -75.34 -0.32, -73.92 161.97 80
